Sanderson, TX

12:17 AM CDT on August 31, 2016 (GMT -0500)
Dryden

Weather History for K6R6 - October, 2012

Change the Weather History Date:

Thursday, October 4, 2012

  Actual Average (KFST) Record (KFST)
Temperature  
Mean Temperature 78 °F -  
Max Temperature 95 °F 81 °F 97 °F (2000)
Min Temperature 61 °F 57 °F 53 °F (2014)
Cooling Degree Days 13    
Growing Degree Days 28 (Base 50)    
Moisture  
Dew Point 54 °F    
Average Humidity 51    
Maximum Humidity 83    
Minimum Humidity 22    
Precipitation  
Precipitation 0.00 in - - ()
Sea Level Pressure  
Sea Level Pressure 29.97 in    
Wind  
Wind Speed 6 mph (North)    
Max Wind Speed 17 mph    
Max Gust Speed 26 mph    
Averages and records for this station are not official NWS values.
T = Trace of Precipitation, MM = Missing Value Source: NWS Daily Summary

Daily Weather History Graph

Daily Weather History Graph

Search for Another Location

Airport or City:

Trip Planner

Search our weather history database for the weather conditions in past years. The results will help you decide how hot, cold, wet, or windy it might be!

Date:

Astronomy

Oct. 04, 2012 Rise Set
Actual Time 7:44 AM CDT 7:29 PM CDT
Civil Twilight 7:20 AM CDT 7:53 PM CDT
Nautical Twilight 6:52 AM CDT 8:21 PM CDT
Astronomical Twilight 6:24 AM CDT 8:49 PM CDT
Moon 10:26 PM CDT (10/4) 11:44 AM CDT (10/4)
Length of Visible Light 12h 33m
Length of Day
11h 45m
Waning Gibbous, 82% of the Moon is Illuminated
Oct 4
Waning Gibbous
Oct 8
Last Quarter
Oct 15
New
Oct 21
First Quarter
Oct 29
Full

Hourly Weather History & Observations

Time (CDT) Temp. Heat Index Dew Point Humidity Pressure Visibility Wind Dir Wind Speed Gust Speed Precip Events Conditions
12:53 AM 71.1 °F - 57.9 °F 63% 29.90 in - NNE 5.8 mph - N/A   Unknown
1:53 AM 69.1 °F - 57.9 °F 68% 29.91 in - NNE 4.6 mph - N/A   Unknown
2:53 AM 68.0 °F - 57.9 °F 70% 29.91 in - NNE 5.8 mph - N/A   Unknown
3:53 AM 66.9 °F - 57.9 °F 73% 29.91 in - NNE 6.9 mph - N/A   Unknown
4:53 AM 64.9 °F - 57.9 °F 78% 29.91 in - North 5.8 mph - N/A   Unknown
5:53 AM 64.0 °F - 57.9 °F 80% 29.92 in - North 4.6 mph - N/A   Unknown
6:53 AM 61.0 °F - 55.9 °F 83% 29.94 in - Calm Calm - N/A   Unknown
7:53 AM 61.0 °F - 55.9 °F 83% 29.95 in - WNW 3.5 mph - N/A   Unknown
8:53 AM 68.0 °F - 59.0 °F 73% 29.97 in - Calm Calm - N/A   Unknown
9:53 AM 73.9 °F - 60.1 °F 62% 29.97 in - WSW 3.5 mph - N/A   Unknown
10:53 AM 79.0 °F - 60.1 °F 52% 29.98 in - Calm Calm - N/A   Unknown
11:53 AM 88.0 °F - 50.0 °F 27% 29.97 in - West 5.8 mph - N/A   Unknown
12:53 PM 90.0 °F 89.1 °F 59.0 °F 35% 29.97 in - East 6.9 mph - N/A   Unknown
1:53 PM 95.0 °F - 51.1 °F 22% 29.97 in - North 17.3 mph 24.2 mph N/A   Unknown
2:53 PM 91.0 °F - 50.0 °F 24% 29.97 in - North 17.3 mph 24.2 mph N/A   Unknown
3:53 PM 89.1 °F - 48.0 °F 24% 29.97 in - North 17.3 mph 26.5 mph N/A   Unknown
4:53 PM 87.1 °F - 48.9 °F 27% 29.98 in - North 17.3 mph 25.3 mph N/A   Unknown
5:53 PM 84.9 °F - 48.0 °F 28% 30.00 in - NNE 15.0 mph 21.9 mph N/A   Unknown
6:53 PM 82.9 °F - 48.0 °F 29% 30.01 in - North 11.5 mph - N/A   Unknown
7:53 PM 78.1 °F - 48.9 °F 36% 30.02 in - NNE 9.2 mph - N/A   Unknown
8:53 PM 75.9 °F - 50.0 °F 40% 30.03 in - NNE 5.8 mph - N/A   Unknown
9:53 PM 72.0 °F - 51.1 °F 48% 30.04 in - North 5.8 mph - N/A   Unknown
10:53 PM 70.0 °F - 51.1 °F 51% 30.04 in - Calm Calm - N/A   Unknown
11:53 PM 72.0 °F - 51.1 °F 48% 30.01 in - North 5.8 mph - N/A   Unknown